OBJECT C, 59919

Orbit data source: Space-Track

You're viewing an Uncataloged Satellite

Recently launched and/or uncataloged satellites may have evolving metadata. Metadata may include but not limited to: Owner, Maufacturer, Bus, Motor, and Mission.

OBJECT C, 59919 is a Chinese satellite in SSO that was launched on Thu, 30 May 2024 UTC via a GUSHENXING 1 launch vehicle from the Jiuquan Satellite Launch Center, China (JSC). Unknown objects in Earth's orbit typically refer to objects detected orbiting the Earth but have not yet been identified or cataloged. These objects could be anything from previously untracked satellites, spent rocket stages, debris from satellite collisions, or even natural meteoroids temporarily captured by Earth's gravity.

Loading next visibility...
Identifier
59919, 2024-105C
Orbit
SSO
Country
Flag of CNCN / PRC
Related business
None
Manufacturer
Unknown
Mission
Operational Commercial Meteo Radio Occ.
Bus & Motor
Unknown
Mass
Unknown
Launch date (UTC)
2024-05-30 (2 years ago)
Launch vehicle
GUSHENXING 1
Launch site
Jiuquan Satellite Launch Center, China (JSC)
Object type
Unknown
Shape & HBR
Box + 1 Pan, 2.5 m
Radar Cross Section
5.339 m², Medium (>0.1 m² and < 1m²)

Expand to show TLE details & history
Last TLE update: 1 month ago

TLE from 1 month ago
0 OBJECT C
1 59919U 24105C   26145.25946074  .00003365  00000-0  17586-3 0  9997
2 59919  97.5805 162.1295 0014365 266.5691  93.3899 15.16509634109684
Epoch: 2026-05-25T06:13Z
TLE epoch observation values (Epoch: 2026-05-25T06:13:37.407Z)
Latitude
-0.00001°
Longitude
-174.12618°
Altitude
520.08 km
Speed
7.603 km/s
True Right ascension
10h 48m 31s
True Declination
0° 00' 00"
Sunlit
Object was in daylight at epoch
Visualization orbit readout
Latitude
Unknown
Longitude
Unknown
Altitude
Unknown
Speed
Unknown
Apparent Right ascension
Unknown
Apparent Declination
Unknown
Sunlit
N/A
Visualization observer readout
Local Sidereal Time
00:34:48
Azimuth
Unknown
Elevation
Unknown
Doppler factor
Unknown
Orbital elements
Apogee altitude
523.277 km
Perigee altitude
503.478 km
Semi-major axis
6,891.514 km
Eccentricity
0.00144
Inclination
97.5805°
RAAN
162.1295°
Arg. of periapsis
266.5691°
True anomaly
93.55421°
Mean anomaly
93.3899°
Eccentric anomaly
93.47205°
Mean motion
3.79377 °/min
Orbital period
94.89 mins
BSTAR
0.00017586
Loading maneuver chart data...
Computing Atmospheric mass density...
Loading historical data...
Loading historical data...
Loading historical data...
Loading historical data...
Loading historical data...
Loading historical data...
Loading historical data...
Other satellites on launch #105 in the year 2024 (2024-05-30 UTC)

Documentation

Showing up to 5 results
|